Waarnemingen

Advertentie
Mijn weer
Culdrose, Groot Brittannië (3809): temperatuur & dauwpunt: 19.09.2018 11:00:00 - 25.09.2018 11:00:00 (BST)Culdrose, Groot Brittannië (3809): windsnelheid & windstoten: 19.09.2018 11:00:00 - 25.09.2018 11:00:00 (BST)Culdrose, Groot Brittannië (3809): windrichting: 19.09.2018 11:00:00 - 25.09.2018 11:00:00 (BST)Culdrose, Groot Brittannië (3809): luchtdruk: 19.09.2018 11:00:00 - 25.09.2018 11:00:00 (BST)Culdrose, Groot Brittannië (3809): zicht: 19.09.2018 11:00:00 - 25.09.2018 11:00:00 (BST)Culdrose, Groot Brittannië (3809): neerslag: 19.09.2018 11:00:00 - 25.09.2018 11:00:00 (BST)
Datum & Tijd tt [°C] td [°C] ff [km/u] ff [kn] fx [km/u] fx [kn] dd ppp [hPa] vv [km] rr [mm]
25.09.2018 11:00:00 - - - - - - - - - -
25.09.2018 10:00:00 12,4 9,9 9 5 - - O 1037,3 10 0,0
25.09.2018 09:00:00 9,9 9,2 11 6 - - ONO 1037,6 10 0,0
25.09.2018 08:00:00 7,6 7,5 11 6 - - NO 1037,5 10 0,0
25.09.2018 07:00:00 5,0 4,6 9 5 - - ONO 1037,5 25 0,0
25.09.2018 06:00:00 4,2 3,8 13 7 - - ONO 1037,2 10 0,0
25.09.2018 05:00:00 3,8 3,0 8 4 - - O 1037,4 10 0,0
25.09.2018 04:00:00 4,7 3,6 5 3 - - O 1037,9 10 0,0
25.09.2018 03:00:00 6,7 6,1 5 3 - - O 1038,3 10 0,0
25.09.2018 02:00:00 5,1 3,1 11 6 - - ONO 1038,5 10 0,0
25.09.2018 01:00:00 5,7 3,3 13 7 - - ONO 1038,7 10 0,0
25.09.2018 00:00:00 6,3 3,8 13 7 - - ONO 1038,8 20 0,0
24.09.2018 23:00:00 7,1 4,9 13 7 - - NO 1039,0 10 0,0
24.09.2018 22:00:00 6,3 4,0 13 7 - - NO 1038,8 10 0,0
24.09.2018 21:00:00 7,8 4,9 11 6 - - NO 1038,9 10 0,0
24.09.2018 20:00:00 9,1 5,1 9 5 - - NNO 1038,8 10 0,0
24.09.2018 19:00:00 11,3 5,3 11 6 - - N 1038,5 10 0,0
24.09.2018 18:00:00 13,0 6,5 8 4 - - WNW 1038,6 20 0,0
24.09.2018 17:00:00 12,9 6,9 9 5 - - ZW 1038,9 25 0,0
24.09.2018 16:00:00 13,1 6,5 9 5 - - ZW 1039,2 30 0,0
24.09.2018 15:00:00 13,4 6,6 8 4 - - ONO 1039,3 30 0,0
24.09.2018 14:00:00 13,9 6,3 8 4 - - O 1039,4 30 0,0
24.09.2018 13:00:00 13,9 6,7 13 7 - - O 1039,7 10 0,0
24.09.2018 12:00:00 14,4 7,5 18 10 - - O 1039,4 10 0,0
24.09.2018 11:00:00 13,7 7,5 9 5 - - O 1039,9 10 0,0
24.09.2018 10:00:00 12,5 7,8 9 5 - - ONO 1039,4 10 0,0
24.09.2018 09:00:00 9,9 7,5 9 5 - - ONO 1038,9 10 0,0
24.09.2018 08:00:00 6,9 5,4 11 6 - - ONO 1038,4 10 0,0
24.09.2018 07:00:00 7,0 5,7 9 5 - - ONO 1037,8 25 0,0
24.09.2018 06:00:00 6,6 5,2 9 5 - - NO 1037,4 20 0,0
24.09.2018 05:00:00 6,8 5,1 13 7 - - NNO 1037,1 10 0,0
24.09.2018 04:00:00 7,6 5,1 11 6 - - NNO 1036,9 10 0,0
24.09.2018 03:00:00 6,8 4,4 15 8 - - N 1036,9 10 0,0
24.09.2018 02:00:00 8,0 5,2 11 6 - - NNO 1036,5 10 0,0
24.09.2018 01:00:00 9,0 5,6 15 8 - - N 1035,9 35 0,0
24.09.2018 00:00:00 7,2 4,9 16 9 - - N 1035,1 30 0,0
23.09.2018 23:00:00 7,8 4,3 16 9 - - N 1034,4 35 0,0
23.09.2018 22:00:00 10,0 4,7 15 8 - - N 1033,7 40 0,0
23.09.2018 21:00:00 9,9 4,9 18 10 - - N 1032,6 35 0,0
23.09.2018 20:00:00 10,7 5,0 21 11 - - N 1031,4 40 0,0
23.09.2018 19:00:00 11,7 3,8 34 18 54 29 N 1030,1 10 0,0
23.09.2018 18:00:00 12,4 3,9 37 20 59 32 N 1029,0 40 0,0
23.09.2018 17:00:00 12,7 5,2 42 23 59 32 N 1028,3 40 0,0
23.09.2018 16:00:00 12,8 4,2 42 23 57 31 N 1027,2 40 0,0
23.09.2018 15:00:00 13,6 5,8 42 23 57 31 N 1026,6 35 0,0
23.09.2018 14:00:00 14,3 8,5 39 21 55 30 N 1025,4 30 0,0
23.09.2018 13:00:00 13,8 8,1 42 23 61 33 N 1023,5 35 0,0
23.09.2018 12:00:00 12,5 9,2 37 20 59 32 N 1022,1 35 0,0
23.09.2018 11:00:00 12,0 9,5 42 23 67 36 NNO 1020,5 29 0,0
23.09.2018 10:00:00 12,3 10,4 39 21 54 29 N 1019,2 10 0,0
23.09.2018 09:00:00 11,9 11,2 41 22 52 28 N 1016,4 11 0,0
23.09.2018 08:00:00 12,2 11,6 28 15 50 27 N 1014,8 40 0,6
23.09.2018 07:00:00 12,1 11,2 29 16 - - N 1014,0 9 0,0
23.09.2018 06:00:00 12,3 11,6 28 15 - - N 1012,8 50 0,0
23.09.2018 05:00:00 12,4 11,7 21 11 - - N 1013,0 45 0,0
23.09.2018 04:00:00 12,4 11,8 16 9 - - N 1013,0 40 0,0
23.09.2018 03:00:00 12,5 12,1 21 11 - - NNW 1012,9 30 0,0
23.09.2018 02:00:00 12,5 12,2 13 7 - - NNW 1013,1 30 0,0
23.09.2018 01:00:00 12,6 12,4 13 7 - - NNW 1012,9 23 0,0
23.09.2018 00:00:00 13,0 12,9 15 8 - - NW 1012,4 25 0,0
22.09.2018 23:00:00 13,4 13,4 18 10 - - WNW 1012,2 27 0,0
22.09.2018 22:00:00 14,2 14,2 15 8 - - WNW 1011,3 10 0,0
22.09.2018 21:00:00 15,2 15,2 16 9 - - WZW 1010,9 11 0,0
22.09.2018 20:00:00 15,7 15,7 26 14 48 26 WZW 1009,7 0,1 0,0
22.09.2018 19:00:00 16,1 16,1 28 15 54 29 WZW 1009,2 0,2 0,0
22.09.2018 18:00:00 16,2 16,2 34 18 54 29 WZW 1008,8 0,1 0,0
22.09.2018 17:00:00 16,3 16,3 31 17 50 27 WZW 1008,8 0,2 0,2
22.09.2018 16:00:00 16,4 16,4 34 18 48 26 WZW 1009,0 0,2 0,2
22.09.2018 15:00:00 15,0 15,0 5 3 - - ZZW 1009,0 2,5 3,0
22.09.2018 14:00:00 13,5 13,4 37 20 52 28 O 1009,2 3,0 3,4
22.09.2018 13:00:00 13,0 12,7 42 23 57 31 OZO 1011,0 4,7 3,0
22.09.2018 12:00:00 12,3 12,0 42 23 54 29 OZO 1012,5 1,3 3,0
22.09.2018 11:00:00 11,6 11,2 34 18 46 25 OZO 1014,8 3,1 1,6
22.09.2018 10:00:00 11,1 10,8 24 13 - - OZO 1016,1 12 2,0
22.09.2018 09:00:00 10,9 10,5 16 9 - - ZZO 1017,9 3,9 1,4
22.09.2018 08:00:00 10,8 9,8 15 8 - - Z 1018,5 1,9 0,6
22.09.2018 07:00:00 11,6 10,5 9 5 - - ZO 1019,1 10 0,4
22.09.2018 06:00:00 11,7 10,6 11 6 - - ZZO 1019,2 15 0,6
22.09.2018 05:00:00 12,4 9,7 8 4 - - ZZO 1019,7 17 0,0
22.09.2018 04:00:00 12,9 9,3 9 5 - - ZW 1020,4 26 0,0
22.09.2018 03:00:00 13,3 9,4 13 7 - - WZW 1021,1 26 0,0
22.09.2018 02:00:00 13,3 9,2 13 7 - - WZW 1021,0 27 0,0
22.09.2018 01:00:00 13,2 9,3 13 7 - - W 1021,1 25 0,0
22.09.2018 00:00:00 13,2 9,4 16 9 - - W 1021,0 26 0,0
21.09.2018 23:00:00 13,0 9,1 16 9 - - W 1021,2 26 0,0
21.09.2018 22:00:00 12,8 8,4 16 9 - - W 1021,0 25 0,0
21.09.2018 21:00:00 13,0 8,3 18 10 - - W 1020,5 24 0,0
21.09.2018 20:00:00 13,2 7,8 18 10 - - W 1020,0 24 0,0
21.09.2018 19:00:00 13,5 7,7 22 12 - - W 1019,4 10 0,0
21.09.2018 18:00:00 13,9 6,9 29 16 46 25 W 1019,0 28 0,0
21.09.2018 17:00:00 14,6 6,8 35 19 48 26 W 1018,5 28 0,0
21.09.2018 16:00:00 14,9 9,4 34 18 57 31 W 1017,9 30 0,0
21.09.2018 15:00:00 14,9 7,9 37 20 55 30 W 1017,4 27 0,0
21.09.2018 14:00:00 14,5 7,5 31 17 63 34 W 1016,9 10 0,0
21.09.2018 13:00:00 14,4 6,7 34 18 55 30 W 1016,1 10 0,0
21.09.2018 12:00:00 13,2 6,7 28 15 61 33 W 1015,7 10 0,2
21.09.2018 11:00:00 14,2 8,3 29 16 57 31 W 1014,7 10 0,0
21.09.2018 10:00:00 13,0 6,7 28 15 52 28 W 1013,9 10 0,0
21.09.2018 09:00:00 12,0 6,8 26 14 54 29 W 1013,0 10 0,0
21.09.2018 08:00:00 10,9 6,9 22 12 - - W 1012,1 10 0,0
21.09.2018 07:00:00 10,6 7,5 22 12 - - W 1011,0 20 0,6
21.09.2018 06:00:00 10,2 7,0 22 12 - - WNW 1010,3 10 0,0
21.09.2018 05:00:00 10,2 6,8 22 12 46 25 WNW 1009,5 10 0,0
21.09.2018 04:00:00 10,3 7,6 26 14 52 28 WNW 1008,5 10 0,0
21.09.2018 03:00:00 10,7 8,5 29 16 55 30 WNW 1007,3 8 0,0
21.09.2018 02:00:00 11,4 9,8 29 16 72 39 WNW 1005,5 10 0,2
21.09.2018 01:00:00 14,0 10,8 26 14 54 29 WZW 1002,7 10 0,0
21.09.2018 00:00:00 13,7 11,4 29 16 59 32 W 1002,9 10 0,0
20.09.2018 23:00:00 14,0 11,6 34 18 68 37 W 1002,1 14 0,0
20.09.2018 22:00:00 15,1 14,9 34 18 98 53 WZW 1000,8 5 0,6
20.09.2018 21:00:00 16,6 16,6 52 28 85 46 ZZW 999,4 2,0 4,6
20.09.2018 20:00:00 16,7 16,7 46 25 85 46 ZZW 1000,7 2,0 6,0
20.09.2018 19:00:00 16,7 16,4 44 24 74 40 Z 1001,6 2,4 2,2
20.09.2018 18:00:00 16,9 16,4 39 21 70 38 ZZW 1003,6 2,4 0,2
20.09.2018 17:00:00 17,3 16,3 35 19 67 36 ZZW 1004,6 5 0,0
20.09.2018 16:00:00 17,3 16,4 37 20 68 37 ZZW 1005,9 5 0,0
20.09.2018 15:00:00 17,1 16,3 37 20 65 35 ZZW 1007,0 5 0,0
20.09.2018 14:00:00 17,7 16,6 35 19 70 38 ZZW 1007,5 4,0 0,0
20.09.2018 13:00:00 17,0 16,2 34 18 63 34 ZZW 1008,1 4,0 0,0
20.09.2018 12:00:00 17,0 16,2 37 20 67 36 ZZW 1008,9 4,0 0,0
20.09.2018 11:00:00 16,8 16,1 35 19 59 32 ZZW 1009,2 4,0 0,0
20.09.2018 10:00:00 16,7 16,0 31 17 55 30 ZZW 1009,9 5 0,0
20.09.2018 09:00:00 16,4 15,9 34 18 54 29 ZZW 1010,3 5 0,2
20.09.2018 08:00:00 16,3 15,8 31 17 52 28 ZZW 1010,6 4,0 0,0
20.09.2018 07:00:00 16,3 15,8 28 15 48 26 ZZW 1010,8 4,0 0,0
20.09.2018 06:00:00 16,2 15,9 29 16 55 30 ZZW 1011,1 3,5 0,6
20.09.2018 05:00:00 16,4 15,8 34 18 54 29 ZZW 1011,4 4,5 0,0
20.09.2018 04:00:00 16,3 15,7 31 17 52 28 ZZW 1011,8 8 0,0
20.09.2018 03:00:00 16,3 15,9 31 17 55 30 ZZW 1011,9 4,0 0,0
20.09.2018 02:00:00 16,2 15,9 31 17 55 30 ZZW 1012,2 7 0,0
20.09.2018 01:00:00 16,2 16,1 34 18 52 28 ZZW 1012,5 5 0,0
20.09.2018 00:00:00 15,8 15,7 26 14 - - ZZW 1013,2 2,0 0,8
19.09.2018 23:00:00 13,7 13,6 0 0 - - N 1013,9 2,0 0,6
19.09.2018 22:00:00 13,8 13,6 9 5 - - W 1014,6 2,4 0,6
19.09.2018 21:00:00 14,1 13,6 13 7 - - WZW 1014,8 2,8 0,4
19.09.2018 20:00:00 14,9 13,9 11 6 - - ZZW 1014,4 4,0 0,0
19.09.2018 19:00:00 14,7 14,0 8 4 - - WZW 1014,4 4,0 0,0
19.09.2018 18:00:00 15,1 13,9 15 8 - - W 1014,6 4,0 0,0
19.09.2018 17:00:00 15,7 15,2 18 10 - - WZW 1014,1 4,0 0,0
19.09.2018 16:00:00 16,0 15,5 21 11 - - WZW 1013,6 7 0,2
19.09.2018 15:00:00 16,1 14,9 16 9 55 30 WZW 1013,4 4,0 0,0
19.09.2018 14:00:00 17,8 15,3 31 17 55 30 ZW 1012,9 8 0,0
19.09.2018 13:00:00 17,9 14,9 34 18 59 32 ZW 1012,4 8 0,0
19.09.2018 12:00:00 18,9 16,1 34 18 63 34 ZW 1011,9 8 0,0
19.09.2018 11:00:00 18,3 16,0 34 18 63 34 ZZW 1011,3 8 0,0

tt = temperatuur
td = dauwpunt
ff = windsnelheid
fx = windstoten
dd = windrichting
ppp = luchtdruk
vv = zicht
rr = neerslag

Weerstations in de omgeving